Zanesville, OH

10:08 AM EST on December 16, 2017 (GMT -0500)
Zanesville Municipal

Weather History for KZZV - November, 2011

Change the Weather History Date:

Monday, November 14, 2011

  Actual Average Record
Temperature  
Mean Temperature 64 °F 44 °F  
Max Temperature 71 °F 54 °F 75 °F (1909)
Min Temperature 56 °F 34 °F 9 °F (1986)
Degree Days  
Heating Degree Days 1 21  
Month to date heating degree days 229 264  
Since 1 July heating degree days 707 751  
Cooling Degree Days 0 0  
Month to date cooling degree days 0 0  
Year to date cooling degree days 955 768  
Growing Degree Days 12 (Base 50)    
Moisture  
Dew Point 55 °F    
Average Humidity 75    
Maximum Humidity 93    
Minimum Humidity 56    
Precipitation  
Precipitation 1.33 in 0.11 in 1.33 in (2011)
Month to date precipitation 1.46 1.38  
Year to date precipitation 44.04 33.52  
Sea Level Pressure  
Sea Level Pressure 29.75 in    
Wind  
Wind Speed 12 mph (SW)    
Max Wind Speed 29 mph    
Max Gust Speed 39 mph    
Visibility 7 miles    
Events Rain , Thunderstorm    
T = Trace of Precipitation, MM = Missing Value Source: NWS Daily Summary

Daily Weather History Graph

Daily Weather History Graph

Search for Another Location

Airport or City:

Trip Planner

Search our weather history database for the weather conditions in past years. The results will help you decide how hot, cold, wet, or windy it might be!

Date:

Astronomy

Nov. 14, 2011 Rise Set
Actual Time 7:11 AM EST 5:12 PM EST
Civil Twilight 6:42 AM EST 5:41 PM EST
Nautical Twilight 6:09 AM EST 6:13 PM EST
Astronomical Twilight 5:37 AM EST 6:45 PM EST
Moon 8:18 PM EST (11/14) 10:28 AM EST (11/14)
Length of Visible Light 10h 59m
Length of Day
10h 01m
Waning Gibbous, 87% of the Moon is Illuminated
Nov 14
Waning Gibbous
Nov 18
Last Quarter
Nov 25
New
Dec 2
First Quarter
Dec 10
Full

Hourly Weather History & Observations

Time (EST) Temp. Dew Point Humidity Pressure Visibility Wind Dir Wind Speed Gust Speed Precip Events Conditions
12:53 AM 62.1 °F 46.9 °F 58% 29.79 in 10.0 mi South 13.8 mph - N/A   Mostly Cloudy
1:53 AM 63.0 °F 46.9 °F 56% 29.78 in 10.0 mi SSW 11.5 mph - N/A   Overcast
2:53 AM 63.0 °F 48.0 °F 58% 29.78 in 10.0 mi South 12.7 mph 20.7 mph N/A   Overcast
3:53 AM 62.1 °F 50.0 °F 65% 29.78 in 10.0 mi WSW 8.1 mph 17.3 mph 0.00 in Rain Light Rain
4:10 AM 57.2 °F 53.6 °F 88% 29.83 in 2.0 mi NW 10.4 mph - 0.15 in Rain Heavy Rain
4:21 AM 57.2 °F 53.6 °F 88% 29.82 in 3.0 mi NW 4.6 mph - 0.20 in Rain Rain
4:53 AM 55.9 °F 54.0 °F 93% 29.81 in 10.0 mi Calm Calm - 0.23 in Rain Light Rain
5:53 AM 55.9 °F 55.0 °F 97% 29.81 in 4.0 mi Calm Calm - 0.03 in Rain Rain
6:53 AM 55.4 °F 53.6 °F 94% 29.80 in 7.0 mi SE 5.8 mph - N/A Rain Light Rain
7:53 AM 55.9 °F 54.0 °F 93% 29.79 in 10.0 mi SSE 4.6 mph - 0.01 in   Overcast
8:53 AM 60.1 °F 54.0 °F 80% 29.78 in 10.0 mi South 12.7 mph 19.6 mph N/A   Overcast
9:53 AM 63.0 °F 54.0 °F 72% 29.78 in 10.0 mi South 9.2 mph - N/A   Overcast
10:53 AM 66.0 °F 55.0 °F 68% 29.78 in 10.0 mi SSW 10.4 mph 21.9 mph N/A   Overcast
11:53 AM 69.1 °F 55.9 °F 63% 29.75 in 10.0 mi SSW 18.4 mph 27.6 mph N/A   Overcast
12:53 PM 69.1 °F 55.9 °F 63% 29.73 in 10.0 mi SSW 13.8 mph 26.5 mph N/A   Overcast
1:53 PM 70.0 °F 57.0 °F 63% 29.69 in 10.0 mi SSW 16.1 mph 25.3 mph N/A   Overcast
2:53 PM 70.0 °F 55.9 °F 61% 29.67 in 10.0 mi SSW 20.7 mph 31.1 mph N/A   Overcast
3:53 PM 70.0 °F 55.9 °F 61% 29.66 in 10.0 mi SSW 20.7 mph 34.5 mph N/A   Mostly Cloudy
4:53 PM 69.1 °F 55.9 °F 63% 29.67 in 10.0 mi SSW 20.7 mph 31.1 mph N/A   Overcast
5:53 PM 69.1 °F 55.9 °F 63% 29.68 in 10.0 mi SSW 13.8 mph 26.5 mph N/A   Overcast
6:53 PM 69.1 °F 55.9 °F 63% 29.65 in 10.0 mi SSW 16.1 mph 25.3 mph N/A   Scattered Clouds
7:53 PM 68.0 °F 55.4 °F 64% 29.68 in 10.0 mi SSW 15.0 mph 23.0 mph N/A   Clear
8:53 PM 66.9 °F 55.9 °F 68% 29.68 in 10.0 mi SSW 10.4 mph - 0.00 in   Mostly Cloudy
9:31 PM 66.2 °F 57.2 °F 73% 29.69 in 10.0 mi SSW 8.1 mph 18.4 mph 0.02 in Rain , Thunderstorm Light Thunderstorms and Rain
9:45 PM 62.6 °F 57.2 °F 82% 29.75 in 1.5 mi WNW 25.3 mph 32.2 mph 0.21 in Rain , Thunderstorm Thunderstorms and Rain
9:48 PM 60.8 °F 57.2 °F 88% 29.75 in 0.8 mi West 25.3 mph 33.4 mph 0.42 in Rain , Thunderstorm Heavy Rain
9:53 PM 59.0 °F 57.2 °F 94% 29.76 in 0.8 mi West 18.4 mph 33.4 mph N/A Rain Heavy Rain
9:56 PM 59.0 °F 57.2 °F 94% 29.77 in 1.0 mi WNW 19.6 mph 33.4 mph 0.02 in Rain Heavy Rain
10:01 PM 59.0 °F 55.4 °F 88% 29.77 in 2.0 mi West 17.3 mph 25.3 mph 0.06 in Rain Heavy Rain
10:07 PM 57.2 °F 55.4 °F 94% 29.77 in 3.0 mi West 12.7 mph 24.2 mph 0.08 in Rain , Thunderstorm Rain
10:21 PM 57.2 °F 55.4 °F 94% 29.76 in 4.0 mi WSW 6.9 mph 16.1 mph 0.13 in Rain , Thunderstorm Rain
10:29 PM 57.2 °F 55.4 °F 94% 29.76 in 3.0 mi WSW 5.8 mph - 0.17 in Rain Rain
10:44 PM 57.2 °F 57.2 °F 100% 29.76 in 2.0 mi SW 6.9 mph - 0.26 in Rain Heavy Rain
10:53 PM 57.9 °F 55.9 °F 93% 29.76 in 2.5 mi WSW 9.2 mph - 0.31 in Rain Heavy Rain
11:01 PM 57.2 °F 55.4 °F 94% 29.77 in 3.0 mi WSW 5.8 mph - 0.04 in Rain Rain
11:23 PM 57.2 °F 57.2 °F 100% 29.76 in 5.0 mi SW 4.6 mph - 0.10 in Rain Rain
11:53 PM 57.9 °F 57.0 °F 97% 29.76 in 4.0 mi WSW 5.8 mph - 0.18 in Rain Rain